User: anonymous   Login
Location: Unspecified
(0.0000°N, 0.0000°E)
Time: 19:05:54
(UTC+00:00)
Language:

STARLINK-5069 - Orbit

View from above orbital plane
View from above orbital plane
View from above satellite
View from above satellite

Ground track
Ground track

The orbit is defined by the following mean orbital elements,

1 55640U          26145.00472807 +.00000000 +00000-0 -53603-4 0 00001
2 55640  69.9996 351.9981 0002260 263.6551  96.4351 14.98335464    09
Epoch (UTC): 25 May 2026 00:06:48
Eccentricity: 0.0002260
inclination: 69.9996°
perigee height: 570 km
apogee height: 574 km
right ascension of ascending node: 351.9981°
argument of perigee: 263.6551°
revolutions per day: 14.98335464
mean anomaly at epoch: 96.4351°

The dashed part of the orbit path shows where the satellite is in the earth's shadow,  

DLR